Regional Weather Roundup
Issued by NWS

Home | Current Version | Previous Version | Text Only | Print | Product List | Glossary Off
Versions: 1 2 3 4 5 6 7 8 9 10 11 12 13 14 15 16 17 18 19 20 21 22 23 24 25 26 27 28 29 30 31 32 33 34 35 36 37 38 39 40 41 42 43 44 45 46 47 48 49 50

000
ASUS43 KBIS 300510
RWRND

NORTH DAKOTA REGIONAL WEATHER ROUNDUP
NATIONAL WEATHER SERVICE BISMARCK ND
1200 AM CDT SAT AUG 30 2014

NOTE: "FAIR" INDICATES FEW OR NO CLOUDS BELOW 12,000 FEET WITH NO
SIGNIFICANT WEATHER AND/OR OBSTRUCTIONS TO VISIBILITY.


NDZ001>003-009>011-017-300600-
NORTHWEST NORTH DAKOTA

CITY           SKY/WX    TMP DP  RH WIND       PRES   REMARKS
WILLISTON      CLEAR     55  49  80 CALM      29.96S
MINOT          CLEAR     54  49  83 S5        29.96S
MINOT AFB      CLEAR     52  51  94 SW6       29.96S
$$

NDZ018>021-031>035-040>046-300600-
SOUTHWEST NORTH DAKOTA

CITY           SKY/WX    TMP DP  RH WIND       PRES   REMARKS
BISMARCK       CLEAR     56  53  90 CALM      29.99R
DICKINSON      CLEAR     52  48  86 SE7       29.98S
GARRISON         N/A     52  50  93 CALM      29.98S
HETTINGER ARPT CLEAR     56  51  84 E7        30.01S
$$

NDZ004>008-012>016-024-026-027-054-300600-
NORTHEAST NORTH DAKOTA

CITY           SKY/WX    TMP DP  RH WIND       PRES   REMARKS
GRAND FORKS    PTCLDY    58  54  86 N12       29.91S
GRND FRKS AFB  PTCLDY    57  57  99 N10       29.93S
DEVILS LAKE    CLEAR     54  46  76 NE8       29.95F
$$

NDZ022-023-025-028>030-036>039-047>053-300600-
SOUTHEAST NORTH DAKOTA

CITY           SKY/WX    TMP DP  RH WIND       PRES   REMARKS
FARGO          CLOUDY    62  57  83 N18       29.87R
JAMESTOWN      CLOUDY    60  56  86 N7        29.94S
$$




USA.gov is the U.S. government's official web portal to all federal, state and local government web resources and services.